Tracking 20092 objects as of 13-Dec-2019
HD Live streaming from Space Station
objects crossing your sky now

METEOR 2-17 DEB

Track METEOR 2-17 DEB now!
10-day predictions


NORAD ID: 38281
Int'l Code: 1988-005AJ
Perigee: 910.9 km
Apogee: 938.0 km
Inclination: 82.5 °
Period: 103.4 minutes
Semi major axis: 7295 km
RCS: 0.0059 m2 (small)
Launch date: January 30, 1988
Source: Commonwealth of Independent States (former USSR) (CIS)
Launch site: PLESETSK MISSILE AND SPACE COMPLEX (PKMTR)

Note: This is SATELLITE DEBRIS
aabbcc
Your satellite tracking list
Your tracking list is empty




NASA's NSSDC Master Catalog

Two Line Element Set (TLE):
1 38281U 88005AJ  19340.90440096 +.00000200 +00000-0 +14177-3 0  9997
2 38281 082.5376 040.9643 0018558 249.0597 110.8582 13.93232019258502
Source of the keplerian elements: AFSPC